Regional Weather Roundup
Issued by NWS Binghamton, NY

Current Version | Previous Version | Text Only | Print | Product List | Glossary On
Versions: 1 2 3 4 5 6 7 8 9 10 11 12 13 14 15 16 17 18 19 20 21 22 23 24 25 26 27 28 29 30 31 32 33 34 35 36 37 38 39 40 41 42 43 44 45 46 47 48 49 50
342
ASUS41 KBGM 201110
RWRBGM

REGIONAL WEATHER ROUNDUP
NATIONAL WEATHER SERVICE BINGHAMTON NY
600 AM EST SAT JAN 20 2018

Note: "fair" indicates few or no clouds below 12,000 feet with no
significant weather and/or obstructions to visibility.

* = Station(s) that does not report precipitation, such as rain,
snow, etc, also no thunder or fog.

NYZ009-015>018-022>025-036-037-044>046-055>057-062-201200
...Central New York...

CITY           SKY/WX    TMP DP  RH WIND       PRES   REMARKS
Binghamton     FAIR      31  19  61 W10       29.75R WCI  22
Cortland       FAIR      32  21  64 SW7       29.75R WCI  26
Dansville      FAIR      36  20  52 SE9       29.78R WCI  29
Elmira         FAIR      36  22  56 SW8       29.79R WCI  30
Seneca Falls   SUNNY     39  19  45 SW14G23   29.76R WCI  31
Ithaca         FAIR      34  20  56 SW12      29.76R WCI  25
Hornell        CLEAR     36  19  51 SW7       29.82R WCI  30
Monticello     FAIR      27  20  75 W6        29.79R WCI  20
Penn Yan       FAIR      36  20  52 SW13      29.75R WCI  27
Rome           FAIR      20  16  84 CALM      29.75R
Sidney         CLEAR     32  19  59 W6        29.78R WCI  26
Syracuse       FAIR      36  22  56 SW9       29.73R WCI  29
$$

PAZ038>040-043-044-047-048-072-201200
...Northeast Pennsylvania...

CITY           SKY/WX    TMP DP  RH WIND       PRES   REMARKS
Hazleton       FAIR      36  23  60 SW8       29.86S WCI  29
Scranton       FAIR      37  23  56 SW13      29.84R WCI  29
$$
&&
KEY
WCI = Wind Chill Index
VSB = Visibility
HX  = Heat Index
$$




USA.gov is the U.S. government's official web portal to all federal, state and local government web resources and services.